Regional Weather Roundup
Issued by NWS

Home | Current Version | Previous Version | Graphics & Text | Print | Product List | Glossary On
Versions: 1 2 3 4 5 6 7 8 9 10 11 12 13 14 15 16 17 18 19 20 21 22 23 24 25 26 27 28 29 30 31 32 33 34 35 36 37 38 39 40 41 42 43 44 45 46 47 48 49 50
444
ASUS43 KOAX 280602
RWRNE

WEATHER ROUNDUP FOR NEBRASKA
NATIONAL WEATHER SERVICE OMAHA NE
100 AM CDT WED JUN 28 2017

NOTES: SATELLITE DATA IS BEING USED TO AUGMENT CLOUD COVER ABOVE
       12000 FEET.
       "FAIR" INDICATES FEW OR NO CLOUDS BELOW 12,000 FEET WITH NO
       SIGNIFICANT WEATHER AND/OR OBSTRUCTIONS TO VISIBILITY.

  * THESE STATIONS DO NOT REPORT WEATHER SUCH AS RAIN...SNOW OR FOG.

NEZ001>004-019>022-054>056-280700-
NEBRASKA PANHANDLE

CITY           SKY/WX    TMP DP  RH WIND       PRES   REMARKS
SCOTTSBLUFF    CLEAR     58  52  80 W6        29.83R
6HR MIN TEMP:  57; 6HR MAX TEMP:  88; 6HR PCP:  0.41;

ALLIANCE       CLOUDY    57  53  86 W8        29.79S
6HR MIN TEMP:  56; 6HR MAX TEMP:  81; 6HR PCP:  0.58;

CHADRON        CLOUDY    63  51  65 NW12G22   29.76S
6HR MIN TEMP:  63; 6HR MAX TEMP:  70;

GORDON         FAIR      59  55  87 W3        29.74F
6HR MIN TEMP:  59; 6HR MAX TEMP:  78;

KIMBALL        CLOUDY    63  45  52 NW10      29.90R
SIDNEY         CLOUDY    55  52  89 CALM      29.86R
6HR MIN TEMP:  55; 6HR MAX TEMP:  73; 6HR PCP:  0.01;

$$

NEZ057>060-069>072-079>082-280700-
SOUTHWEST NEBRASKA

CITY           SKY/WX    TMP DP  RH WIND       PRES   REMARKS
NORTH PLATTE   LGT RAIN  66  62  87 MISG      29.77F
6HR MIN TEMP:  64; 6HR MAX TEMP:  87; 6HR PCP:  0.23;

IMPERIAL       PTCLDY    67  54  63 N3        29.78R
6HR MIN TEMP:  67; 6HR MAX TEMP:  90; 6HR PCP:  0.01;

LEXINGTON      CLOUDY    70  63  79 N6        29.75F
MCCOOK         CLOUDY    78  56  46 NE16G25   29.74R
6HR MIN TEMP:  71; 6HR MAX TEMP:  93;

OGALLALA       MOCLDY    70  54  56 E7        29.79S
$$

NEZ005>010-023>029-035>040-094-280700-
NORTH CENTRAL NEBRASKA

CITY           SKY/WX    TMP DP  RH WIND       PRES   REMARKS
AINSWORTH      LGT RAIN  63  60  91 W8        29.71F
BROKEN BOW     CLOUDY    65  60  84 NE5       29.72F
6HR MIN TEMP:  65; 6HR MAX TEMP:  85; 6HR PCP:  0.12;

O`NEILL        LGT RAIN  69  65  88 W10       29.70R
ORD            RAIN      68  59  73 W21G36    29.79R
6HR MIN TEMP:  65; 6HR MAX TEMP:  83; 6HR PCP:  0.17;

$$

NEZ041-046>049-061>064-073>077-083>087-280700-
SOUTH CENTRAL NEBRASKA

CITY           SKY/WX    TMP DP  RH WIND       PRES   REMARKS
GRAND ISLAND   CLOUDY    66  65  96 E9        29.74F
6HR MIN TEMP:  64; 6HR MAX TEMP:  82; 6HR PCP:  0.20;

AURORA         CLOUDY    65  64  98 NE7       29.74F
HASTINGS       CLOUDY    69  64  84 E9        29.73F
6HR MIN TEMP:  68; 6HR MAX TEMP:  83; 6HR PCP:  0.02;

HEBRON         CLOUDY    80  66  62 S20G33    29.72S
HOLDREGE       CLOUDY    68  63  82 N17G31    29.75R
KEARNEY *      CLOUDY    66  63  88 N8        29.75R
$$

NEZ011>018-030>034-042>045-280700-
NORTHEAST NEBRASKA

CITY           SKY/WX    TMP DP  RH WIND       PRES   REMARKS
NORFOLK        TSTM      67  61  81 SW21G29   29.68F
6HR MIN TEMP:  66; 6HR MAX TEMP:  80; 6HR PCP:  0.10;

ALBION         LGT RAIN  68  61  79 SW5       29.71F
BLAIR          CLOUDY    75  65  72 S23G32    29.71F
FREMONT        TSTM      72  66  81 S20G35    29.71R
TEKAMAH        CLOUDY    77  64  64 S24G36    29.67F
6HR MIN TEMP:  75; 6HR MAX TEMP:  80;

WAYNE          LGT RAIN  73  70  90 SW18G25   29.67R
$$

NEZ050>053-065>068-078-088>093-280700-
SOUTHEAST NEBRASKA

CITY           SKY/WX    TMP DP  RH WIND       PRES   REMARKS
LINCOLN        CLOUDY    78  65  63 W25G32    29.83R
6HR MIN TEMP:  76; 6HR MAX TEMP:  82;

OMAHA EPPLEY   CLOUDY    76  65  68 S24G35    29.72F
6HR MIN TEMP:  75; 6HR MAX TEMP:  80;

BEATRICE       CLOUDY    77  65  66 S17G25    29.74F
FALLS CITY     PTCLDY    74  65  73 S17G26    29.79F
6HR MIN TEMP:  73; 6HR MAX TEMP:  80;

PLATTSMOUTH    CLOUDY    73  65  74 S15G24    29.74F
$$

NEZ044-045-051>053-067-280700-
OMAHA AREA

CITY           SKY/WX    TMP DP  RH WIND       PRES   REMARKS
OMAHA EPPLEY   CLOUDY    76  65  68 S24G35    29.72F
6HR MIN TEMP:  75; 6HR MAX TEMP:  80;

BLAIR          CLOUDY    75  65  72 S23G32    29.71F
FREMONT        TSTM      72  66  81 S20G35    29.71R
MILLARD        CLOUDY    76  68  74 S18       29.72F
OFFUTT AFB     CLOUDY    75  65  71 SE18G28   29.73F
PLATTSMOUTH    CLOUDY    73  65  74 S15G24    29.74F
WAHOO          LGT RAIN  75  64  70 S15G21    29.75R
$$




USA.gov is the U.S. government's official web portal to all federal, state and local government web resources and services.